Location: Sawmill Trailhead
(33.5800°N, 116.4497°W)
Time: 03:24:51
(UTC-08:00)

Amateur Radio Satellites - All Passes

Search period start: 22 December 2014 02:54
Search period end: 23 December 2014 02:54
Location: Sawmill Trailhead, 33.5800°N, 116.4497°W

Satellite Date Start Highest point End Downlink Frequencies (MHz)
Time Altitude Azimuth
PHONESAT 2.4 22 Dec 02:59:43 03:03:14 48° 341° (NNW) 03:06:45 2401.200-2431.200
AIST 1 22 Dec 03:06:20 03:10:36 71° 83° (E) 03:14:49
ITAMSAT 1 22 Dec 03:33:28 03:35:55 14° 296° (WNW) 03:38:22 435.822/435.867
Gurwin Techsat 1B 22 Dec 03:36:55 03:40:47 21° 293° (WNW) 03:44:38 435.225
AO-7 22 Dec 03:41:14 03:49:27 57° 103° (ESE) 03:57:35 29.400- 29.500
MOZHAYETS 4 22 Dec 03:49:51 03:54:26 65° 76° (ENE) 03:59:03
GONETS M04 22 Dec 03:54:47 04:01:47 27° 84° (E) 04:08:46
HORYU 2 22 Dec 03:56:46 04:00:28 25° 290° (WNW) 04:04:10 437.375
PRISM 22 Dec 04:02:16 04:02:35 10° 65° (ENE) 04:02:54 437.425
JAS-2 22 Dec 04:11:06 04:15:52 31° 96° (E) 04:20:25 435.910
VERMONT LUNAR 22 Dec 04:17:27 04:20:26 25° 359° (N) 04:23:25 437.305
SO-50 22 Dec 04:30:10 04:33:59 22° 52° (NE) 04:37:47 436.795
STRAND 1 22 Dec 04:33:52 04:35:44 12° 64° (ENE) 04:37:36 437.568
PHONESAT 2.4 22 Dec 04:39:17 04:42:23 26° 358° (N) 04:45:30 2401.200-2431.200
Cubesat XI-IV 22 Dec 05:01:15 05:04:50 18° 94° (E) 05:08:23 437.490
CUBESAT XI-V 22 Dec 05:18:02 05:22:21 38° 73° (ENE) 05:26:39 437.345
CUTE-I 22 Dec 05:32:54 05:37:50 38° 99° (E) 05:42:44 437.470
PRISM 22 Dec 05:33:26 05:37:35 56° 259° (W) 05:41:45 437.425
AO-7 22 Dec 05:34:53 05:41:41 29° 299° (WNW) 05:48:28 29.400- 29.500
GONETS M04 22 Dec 05:49:23 05:57:59 55° 280° (W) 06:06:37
VERMONT LUNAR 22 Dec 05:55:57 05:59:16 38° 16° (NNE) 06:02:36 437.305
JAS-2 22 Dec 05:56:29 06:00:49 25° 293° (WNW) 06:04:57 435.910
STRAND 1 22 Dec 06:09:12 06:14:17 69° 258° (WSW) 06:19:23 437.568
SO-50 22 Dec 06:10:04 06:14:38 40° 247° (WSW) 06:19:11 436.795
PHONESAT 2.4 22 Dec 06:18:12 06:21:37 38° 15° (NNE) 06:25:02 2401.200-2431.200
Cubesat XI-IV 22 Dec 06:40:01 06:45:04 45° 288° (WNW) 06:50:06 437.490
CUBESAT XI-V 22 Dec 06:56:52 06:59:52 17° 266° (W) 07:02:52 437.345
CUTE-I 22 Dec 07:13:35 07:17:37 23° 293° (WNW) 07:21:38 437.470
HO-68 22 Dec 07:13:52 07:17:25 14° 92° (E) 07:20:56 435.675
VERMONT LUNAR 22 Dec 07:34:14 07:37:38 46° 211° (SSW) 07:41:01 437.305
MaSat-1 22 Dec 07:39:57 07:42:16 80° 112° (ESE) 07:44:30 437.345
PHONESAT 2.4 22 Dec 07:56:51 08:00:22 50° 210° (SSW) 08:03:53 2401.200-2431.200
AAUSAT CUBESAT 2 22 Dec 07:58:52 08:01:13 15° 93° (E) 08:03:33 437.432
CUSAT 1 22 Dec 08:03:51 08:06:04 15° 83° (E) 08:08:38 437.405
BRITE-PL 22 Dec 08:11:11 08:15:52 44° 99° (E) 08:20:53 437.365/2234.400
CANX-2 22 Dec 08:17:38 08:21:48 46° 99° (E) 08:25:55 2200.000
GOMX 1 22 Dec 08:28:22 08:33:08 48° 100° (E) 08:38:11 467.674
CUBEBUG 2 22 Dec 08:30:19 08:31:47 11° 92° (E) 08:33:14 437.445
COMPASS 1 22 Dec 08:34:05 08:38:12 46° 99° (E) 08:42:16 437.405
DELFI C3 22 Dec 08:40:15 08:42:59 17° 95° (E) 08:45:42 145.870
SEEDS 22 Dec 08:42:07 08:46:24 73° 101° (ESE) 08:50:39 437.485
ANTELSAT 22 Dec 08:42:26 08:45:07 16° 67° (ENE) 08:47:51 437.575/2403.000
RS-15 22 Dec 08:43:10 08:44:30 10° 97° (E) 08:45:50 29.354- 29.394
DOVE 4 22 Dec 08:45:05 08:49:54 53° 100° (E) 08:54:56 437.250
CUTE 1.7 + AOD 2 22 Dec 08:48:04 08:52:24 80° 283° (WNW) 08:56:41 437.475
POPSAT HIP 1 22 Dec 08:56:38 08:58:45 14° 67° (ENE) 09:00:53 437.405
CINEMA 3 22 Dec 08:56:48 09:01:23 41° 99° (E) 09:06:04 145.822/145.860
FUNcube-1 22 Dec 08:57:36 09:00:28 16° 94° (E) 09:03:21 145.935
HO-68 22 Dec 08:58:34 09:05:44 81° 287° (WNW) 09:12:51 435.675
O/OREOS (USA 219) 22 Dec 08:59:03 09:01:46 16° 60° (ENE) 09:04:29 437.305
UWE-3 22 Dec 09:02:30 09:06:12 23° 96° (E) 09:09:55 435.000/436.395/437.385
DANDE 22 Dec 09:03:12 09:06:30 74° 96° (E) 09:10:56 436.750
DX 1 22 Dec 09:12:00 09:16:03 38° 99° (E) 09:20:05 434.975-435.025
BUGSAT 1 22 Dec 09:12:51 09:15:25 16° 69° (ENE) 09:17:59 437.445
TIGRISAT 22 Dec 09:15:12 09:19:11 37° 72° (ENE) 09:23:17 435.000
HUMSAT D 22 Dec 09:17:54 09:20:23 15° 94° (E) 09:22:52 437.325/437.525
DUCHIFAT 1 22 Dec 09:22:01 09:25:34 27° 71° (ENE) 09:29:08 145.980
AISAT 22 Dec 09:24:05 09:26:53 16° 95° (E) 09:29:42 437.250
Oscar 11 22 Dec 09:30:56 09:35:19 86° 282° (WNW) 09:39:39 145.826/435.025
AAUSAT CUBESAT 2 22 Dec 09:33:05 09:36:58 36° 287° (WNW) 09:40:49 437.432
QB50P2 22 Dec 09:36:32 09:40:30 42° 74° (ENE) 09:44:30 145.880/145.840
UKube-1 22 Dec 09:40:43 09:45:04 84° 103° (ESE) 09:49:24 .
JUGNU 22 Dec 09:41:34 09:44:16 13° 165° (SSE) 09:46:58 437.505
UNISAT 6 22 Dec 09:45:00 09:49:20 89° 76° (ENE) 09:53:49 437.425
CUSAT 1 22 Dec 09:45:40 09:48:42 24° 290° (WNW) 09:52:29 437.405
POLYITAN 1 22 Dec 09:45:55 09:50:01 56° 75° (ENE) 09:54:10 437.675
NANOSAT C BR1 22 Dec 09:46:23 09:50:29 56° 75° (ENE) 09:54:37 145.865
BRITE-PL 22 Dec 09:50:54 09:54:04 18° 291° (WNW) 09:57:22 437.365/2234.400
CANX-2 22 Dec 09:55:28 09:57:16 13° 293° (WNW) 09:59:05 2200.000
QB50P1 22 Dec 10:01:03 10:05:15 87° 77° (ENE) 10:09:28 145.935-145.965
CUBEBUG 2 22 Dec 10:04:06 10:08:43 58° 285° (WNW) 10:13:23 437.445
ZACube-1 22 Dec 10:06:14 10:10:48 77° 283° (WNW) 10:15:24 437.345
GOMX 1 22 Dec 10:07:53 10:10:53 16° 291° (WNW) 10:14:00 467.674
YUBILEINY 22 Dec 10:09:17 10:17:43 52° 79° (E) 10:26:07 435.215
COMPASS 1 22 Dec 10:11:48 10:13:27 12° 293° (WNW) 10:15:06 437.405
50 SAT 22 Dec 10:14:30 10:18:36 57° 100° (E) 10:22:41 437.505
DELFI C3 22 Dec 10:14:42 10:18:14 28° 288° (WNW) 10:21:45 145.870
VELOX 1 22 Dec 10:14:52 10:19:16 66° 101° (ESE) 10:23:40 145.980
ANTELSAT 22 Dec 10:17:32 10:21:33 37° 262° (W) 10:25:42 437.575/2403.000
DOVE 4 22 Dec 10:24:33 10:27:14 15° 292° (WNW) 10:30:00 437.250
ESTCUBE 1 22 Dec 10:24:51 10:28:51 31° 98° (E) 10:32:49 437.505/2401.250
POPSAT HIP 1 22 Dec 10:30:20 10:34:16 39° 261° (W) 10:38:14 437.405
FUNcube-1 22 Dec 10:32:40 10:36:53 38° 287° (WNW) 10:41:07 145.935
CINEMA 3 22 Dec 10:34:59 10:38:14 18° 291° (WNW) 10:41:33 145.822/145.860
O/OREOS (USA 219) 22 Dec 10:37:04 10:41:20 41° 255° (WSW) 10:45:35 437.305
UWE-3 22 Dec 10:38:42 10:42:39 28° 289° (WNW) 10:46:38 435.000/436.395/437.385
ISS 22 Dec 10:43:44 10:44:17 10° 125° (SE) 10:44:49 145.825
RS-15 22 Dec 10:43:55 10:54:47 70° 113° (ESE) 11:05:36 29.354- 29.394
BUGSAT 1 22 Dec 10:47:02 10:50:39 30° 262° (W) 10:54:16 437.445
DX 1 22 Dec 10:49:23 10:51:56 16° 293° (WNW) 10:54:29 434.975-435.025
HO-68 22 Dec 10:49:29 10:52:18 13° 303° (WNW) 10:55:08 435.675
SRMSAT 22 Dec 10:49:43 10:51:28 11° 164° (SSE) 10:53:13 437.500
HUMSAT D 22 Dec 10:52:15 10:56:16 37° 287° (WNW) 11:00:16 437.325/437.525
TIGRISAT 22 Dec 10:53:34 10:56:04 15° 267° (W) 10:58:36 435.000
CUBEBUG 1 22 Dec 10:57:54 11:02:15 75° 102° (ESE) 11:06:35 437.445
DUCHIFAT 1 22 Dec 10:58:25 11:01:23 19° 265° (W) 11:04:23 145.980
AISAT 22 Dec 10:59:32 11:03:34 35° 288° (WNW) 11:07:37 437.250
Oscar 19 22 Dec 11:10:21 11:11:56 11° 63° (ENE) 11:13:30 437.125/150
QB50P2 22 Dec 11:14:55 11:16:35 12° 267° (W) 11:18:15 145.880/145.840
BEESAT 2 22 Dec 11:27:21 11:30:38 24° 111° (ESE) 11:33:57 435.950
JUGNU 22 Dec 11:28:20 11:32:37 20° 175° (S) 11:36:54 437.505
TISAT 1 22 Dec 11:47:54 11:52:06 65° 101° (E) 11:56:18 437.305
SWISSCUBE 22 Dec 11:57:07 11:57:13 10° 92° (E) 11:57:20 437.505
SPROUT 22 Dec 11:57:49 12:02:08 81° 102° (ESE) 12:06:27 437.525
ESTCUBE 1 22 Dec 12:02:16 12:05:28 19° 291° (WNW) 12:08:39 437.505/2401.250
YUBILEINY 22 Dec 12:06:59 12:13:58 28° 276° (W) 12:20:58 435.215
ISS 22 Dec 12:17:13 12:20:28 54° 319° (NW) 12:23:43 145.825
BEESAT 22 Dec 12:18:47 12:22:01 18° 95° (E) 12:25:15 436.000
BEESAT 3 22 Dec 12:22:43 12:26:45 63° 300° (WNW) 12:30:52 437.485
SRMSAT 22 Dec 12:35:50 12:39:57 19° 173° (S) 12:44:03 437.500
AIST 2 22 Dec 12:41:17 12:45:28 78° 117° (ESE) 12:49:45 435.215
Oscar 19 22 Dec 12:45:28 12:50:34 73° 258° (WSW) 12:55:45 437.125/150
PCSat 22 Dec 12:49:42 12:55:06 86° 295° (WNW) 13:00:33 145.827
RS-15 22 Dec 12:58:39 13:07:57 31° 315° (NW) 13:17:22 29.354- 29.394
BEESAT 2 22 Dec 13:05:21 13:08:45 25° 306° (NW) 13:12:12 435.950
ITAMSAT 1 22 Dec 13:05:52 13:10:58 63° 74° (ENE) 13:16:04 435.822/435.867
Gurwin Techsat 1B 22 Dec 13:13:17 13:18:16 43° 72° (ENE) 13:23:17 435.225
HORYU 2 22 Dec 13:16:19 13:18:43 14° 66° (ENE) 13:21:07 437.375
JUGNU 22 Dec 13:16:45 13:21:01 20° 185° (S) 13:25:17 437.505
SWISSCUBE 22 Dec 13:30:43 13:35:26 63° 285° (WNW) 13:40:06 437.505
ITUPSAT 1 22 Dec 13:32:03 13:36:47 69° 285° (WNW) 13:41:30 437.325
AUBIESAT-1 22 Dec 13:38:29 13:42:20 38° 102° (ESE) 13:45:52 437.475
BEESAT 22 Dec 13:55:34 13:59:56 37° 288° (WNW) 14:04:16 436.000
M-CUBED/EXP-1 PRIME 22 Dec 14:05:30 14:09:43 81° 288° (WNW) 14:13:31 437.505
STARS 22 Dec 14:16:14 14:20:30 45° 100° (E) 14:24:45 437.465
JAS-2 22 Dec 14:21:08 14:24:05 13° 61° (ENE) 14:26:56 435.910
SRMSAT 22 Dec 14:24:09 14:28:30 21° 183° (S) 14:32:50 437.500
KKS-1 22 Dec 14:24:25 14:28:55 90° 282° (WNW) 14:33:24 437.445
AO-7 22 Dec 14:35:36 14:43:35 54° 67° (ENE) 14:51:38 29.400- 29.500
PCSat 22 Dec 14:37:36 14:39:17 11° 313° (NW) 14:40:58 145.827
ITAMSAT 1 22 Dec 14:48:49 14:50:47 12° 268° (W) 14:52:46 435.822/435.867
HORYU 2 22 Dec 14:50:43 14:54:57 43° 261° (W) 14:59:15 437.375
Gurwin Techsat 1B 22 Dec 14:54:44 14:58:22 19° 266° (W) 15:02:02 435.225
JUGNU 22 Dec 15:06:43 15:09:22 13° 195° (SSW) 15:12:01 437.505
AUBIESAT-1 22 Dec 15:14:45 15:16:51 14° 299° (WNW) 15:18:52 437.475
RS-15 22 Dec 15:24:03 15:25:41 10° 349° (N) 15:27:19 29.354- 29.394
AIST 1 22 Dec 15:31:37 15:35:51 51° 93° (E) 15:40:05
MOZHAYETS 4 22 Dec 15:50:07 15:53:36 21° 95° (E) 15:57:03
STARS 22 Dec 15:54:20 15:56:33 14° 293° (WNW) 15:58:45 437.465
JAS-2 22 Dec 16:00:30 16:08:13 80° 75° (ENE) 16:15:16 435.910
GONETS M04 22 Dec 16:04:32 16:13:13 63° 81° (E) 16:21:46
SRMSAT 22 Dec 16:13:48 16:17:00 15° 193° (SSW) 16:20:12 437.500
Cubesat XI-IV 22 Dec 16:19:33 16:23:28 21° 67° (ENE) 16:27:24 437.490
AO-7 22 Dec 16:29:42 16:36:34 29° 263° (W) 16:43:31 29.400- 29.500
CUTE-I 22 Dec 16:50:53 16:55:52 42° 72° (ENE) 17:00:51 437.470
AIST 1 22 Dec 17:13:06 17:13:47 10° 287° (WNW) 17:14:28
MaSat-1 22 Dec 17:13:08 17:15:14 24° 65° (ENE) 17:17:25 437.345
CUBESAT XI-V 22 Dec 17:20:44 17:22:47 13° 93° (E) 17:24:49 437.345
PRISM 22 Dec 17:21:04 17:24:34 26° 97° (E) 17:28:02 437.425
MOZHAYETS 4 22 Dec 17:26:48 17:30:47 30° 289° (WNW) 17:34:45
RS-15 22 Dec 17:39:03 17:45:27 16° 29° (NNE) 17:51:57 29.354- 29.394
JAS-2 22 Dec 17:49:06 17:53:33 16° 267° (W) 17:57:51 435.910
Cubesat XI-IV 22 Dec 17:58:16 18:03:14 40° 261° (W) 18:08:14 437.490
GONETS M04 22 Dec 18:02:55 18:09:12 23° 278° (W) 18:15:27
DANDE 22 Dec 18:08:25 18:09:49 10° 65° (ENE) 18:11:14 436.750
STRAND 1 22 Dec 18:23:53 18:28:54 56° 101° (E) 18:33:53 437.568
CUTE-I 22 Dec 18:32:19 18:36:03 19° 265° (W) 18:39:48 437.470
SO-50 22 Dec 18:42:34 18:45:03 15° 108° (ESE) 18:47:35 436.795
CUSAT 1 22 Dec 18:44:12 18:50:44 26° 72° (ENE) 18:57:28 437.405
ISS 22 Dec 18:48:54 18:51:40 24° 36° (NE) 18:54:24 145.825
CUBESAT XI-V 22 Dec 18:56:01 19:00:26 48° 286° (WNW) 19:04:50 437.345
PRISM 22 Dec 18:56:56 18:59:53 19° 291° (WNW) 19:02:49 437.425
CANX-2 22 Dec 19:07:40 19:10:52 21° 70° (ENE) 19:14:04 2200.000
BRITE-PL 22 Dec 19:19:37 19:23:11 28° 72° (ENE) 19:26:43 437.365/2234.400
HO-68 22 Dec 19:22:24 19:29:16 51° 69° (ENE) 19:36:09 435.675
COMPASS 1 22 Dec 19:22:44 19:25:48 20° 70° (ENE) 19:28:54 437.405
SEEDS 22 Dec 19:30:53 19:34:35 30° 72° (ENE) 19:38:19 437.485
GOMX 1 22 Dec 19:34:02 19:37:35 28° 72° (ENE) 19:41:09 467.674
CUTE 1.7 + AOD 2 22 Dec 19:37:11 19:41:12 42° 74° (ENE) 19:45:16 437.475
DANDE 22 Dec 19:46:23 19:54:27 62° 80° (E) 20:03:01 436.750
DOVE 4 22 Dec 19:48:10 19:51:45 29° 72° (ENE) 19:55:24 437.250
RS-15 22 Dec 19:49:55 20:01:02 57° 56° (NE) 20:12:35 29.354- 29.394
CINEMA 3 22 Dec 19:56:11 19:59:18 21° 70° (ENE) 20:02:29 145.822/145.860
UWE-3 22 Dec 19:58:49 19:59:51 11° 66° (ENE) 20:00:53 435.000/436.395/437.385
DX 1 22 Dec 20:04:37 20:07:51 21° 69° (ENE) 20:11:04 434.975-435.025
STRAND 1 22 Dec 20:04:53 20:07:33 14° 295° (WNW) 20:10:14 437.568
AAUSAT CUBESAT 2 22 Dec 20:19:50 20:24:02 89° 77° (ENE) 20:28:17 437.432
SO-50 22 Dec 20:20:48 20:25:07 45° 303° (WNW) 20:29:35 436.795
Oscar 11 22 Dec 20:21:50 20:25:55 43° 74° (ENE) 20:30:02 145.826/435.025
ISS 22 Dec 20:25:27 20:28:10 24° 230° (SW) 20:30:51 145.825
CUSAT 1 22 Dec 20:26:06 20:34:10 66° 266° (W) 20:42:29 437.405
UKube-1 22 Dec 20:32:00 20:36:05 42° 73° (ENE) 20:40:10 .
CANX-2 22 Dec 20:43:02 20:46:36 26° 264° (W) 20:50:13 2200.000
BEESAT 3 22 Dec 20:46:42 20:50:03 23° 54° (NE) 20:53:22 437.485
COMPASS 1 22 Dec 20:57:45 21:01:19 27° 263° (W) 21:04:55 437.405
DELFI C3 22 Dec 20:58:32 21:02:38 80° 258° (WSW) 21:06:46 145.870
ZACube-1 22 Dec 20:58:42 21:02:43 49° 74° (ENE) 21:06:50 437.345
CUBEBUG 2 22 Dec 20:58:45 21:02:53 72° 76° (ENE) 21:07:09 437.445
BRITE-PL 22 Dec 20:59:00 21:01:44 17° 265° (W) 21:04:26 437.365/2234.400
50 SAT 22 Dec 20:59:45 21:02:46 21° 70° (ENE) 21:05:48 437.505
SEEDS 22 Dec 21:07:33 21:10:24 18° 266° (W) 21:13:18 437.485
AIST 2 22 Dec 21:08:07 21:10:57 17° 51° (NE) 21:13:44 435.215
VELOX 1 22 Dec 21:09:06 21:13:07 35° 72° (ENE) 21:17:08 145.980
HO-68 22 Dec 21:11:26 21:17:09 26° 264° (W) 21:22:54 435.675
GOMX 1 22 Dec 21:13:03 21:15:45 17° 266° (W) 21:18:27 467.674
TIGRISAT 22 Dec 21:13:06 21:14:49 12° 92° (E) 21:16:32 435.000
CUTE 1.7 + AOD 2 22 Dec 21:15:28 21:17:18 13° 267° (W) 21:19:08 437.475
ESTCUBE 1 22 Dec 21:21:36 21:24:47 19° 69° (ENE) 21:27:59 437.505/2401.250
FUNcube-1 22 Dec 21:24:31 21:28:40 78° 258° (WSW) 21:32:56 145.935
DOVE 4 22 Dec 21:26:59 21:29:35 16° 266° (W) 21:32:12 437.250
BEESAT 2 22 Dec 21:28:19 21:32:27 59° 60° (ENE) 21:36:31 435.950
DANDE 22 Dec 21:30:52 21:37:27 27° 273° (W) 21:44:19 436.750
UWE-3 22 Dec 21:31:49 21:35:52 51° 260° (W) 21:40:01 435.000/436.395/437.385
CINEMA 3 22 Dec 21:32:59 21:36:22 24° 264° (W) 21:39:49 145.822/145.860
POLYITAN 1 22 Dec 21:37:34 21:39:36 13° 93° (E) 21:41:38 437.675
NANOSAT C BR1 22 Dec 21:37:38 21:39:33 13° 93° (E) 21:41:27 145.865
DX 1 22 Dec 21:40:11 21:43:53 27° 263° (W) 21:47:36 434.975-435.025
HUMSAT D 22 Dec 21:40:12 21:44:19 89° 262° (W) 21:48:31 437.325/437.525
UNISAT 6 22 Dec 21:41:38 21:45:37 27° 96° (E) 21:49:35 437.425
PCSat 22 Dec 21:42:03 21:46:54 32° 57° (ENE) 21:51:42 145.827
CUBEBUG 1 22 Dec 21:50:30 21:54:31 37° 73° (ENE) 21:58:31 437.445
QB50P1 22 Dec 21:51:27 21:54:32 19° 95° (E) 21:57:37 145.935-145.965
AISAT 22 Dec 21:53:21 21:57:43 65° 259° (WSW) 22:02:07 437.250
Oscar 11 22 Dec 22:00:18 22:02:15 13° 267° (W) 22:04:12 145.826/435.025
RS-15 22 Dec 22:02:53 22:12:56 38° 253° (WSW) 22:23:24 29.354- 29.394
UKube-1 22 Dec 22:10:20 22:12:23 13° 266° (W) 22:14:25 .
ANTELSAT 22 Dec 22:13:15 22:17:57 62° 101° (E) 22:22:36 437.575/2403.000
CUSAT 1 22 Dec 22:15:13 22:15:58 10° 280° (W) 22:16:44 437.405
POPSAT HIP 1 22 Dec 22:19:40 22:23:44 43° 99° (E) 22:27:48 437.405
BEESAT 3 22 Dec 22:24:43 22:28:09 25° 249° (WSW) 22:31:32 437.485
BUGSAT 1 22 Dec 22:33:03 22:36:59 48° 100° (E) 22:40:57 437.445
50 SAT 22 Dec 22:34:38 22:37:49 23° 264° (W) 22:41:02 437.505
TISAT 1 22 Dec 22:37:05 22:40:41 28° 72° (ENE) 22:44:17 437.305
ZACube-1 22 Dec 22:38:59 22:39:22 10° 268° (W) 22:39:44 437.345
AIST 2 22 Dec 22:45:43 22:49:43 40° 247° (WSW) 22:53:38 435.215
DUCHIFAT 1 22 Dec 22:46:11 22:50:27 88° 283° (WNW) 22:54:43 145.980
VELOX 1 22 Dec 22:47:00 22:49:46 16° 265° (W) 22:52:31 145.980
TIGRISAT 22 Dec 22:47:12 22:51:49 55° 285° (WNW) 22:56:25 435.000
SPROUT 22 Dec 22:48:26 22:52:19 36° 73° (ENE) 22:56:14 437.525
ESTCUBE 1 22 Dec 22:57:19 23:01:23 33° 262° (W) 23:05:28 437.505/2401.250
QB50P2 22 Dec 23:01:45 23:05:55 54° 285° (WNW) 23:10:06 145.880/145.840
YUBILEINY 22 Dec 23:04:37 23:13:15 69° 92° (E) 23:21:53 435.215
O/OREOS (USA 219) 22 Dec 23:06:15 23:10:16 34° 104° (ESE) 23:14:19 437.305
NANOSAT C BR1 22 Dec 23:11:33 23:15:34 42° 286° (WNW) 23:19:35 145.865
POLYITAN 1 22 Dec 23:11:38 23:15:40 41° 286° (WNW) 23:19:43 437.675
UNISAT 6 22 Dec 23:18:24 23:22:15 25° 290° (WNW) 23:26:05 437.425
BEESAT 22 Dec 23:22:37 23:25:07 14° 66° (ENE) 23:27:37 436.000
PCSat 22 Dec 23:25:35 23:30:09 28° 253° (WSW) 23:34:42 145.827
QB50P1 22 Dec 23:26:45 23:30:23 28° 289° (WNW) 23:34:01 145.935-145.965
CUBEBUG 1 22 Dec 23:28:27 23:30:58 15° 266° (W) 23:33:29 437.445
ANTELSAT 22 Dec 23:52:33 23:54:09 12° 295° (WNW) 23:55:45 437.575/2403.000
POPSAT HIP 1 22 Dec 23:57:10 23:59:13 13° 293° (WNW) 00:01:16 437.405
BUGSAT 1 23 Dec 00:11:04 00:12:02 11° 293° (WNW) 00:13:00 437.445
TISAT 1 23 Dec 00:13:33 00:16:28 18° 265° (W) 00:19:24 437.305
VERMONT LUNAR 23 Dec 00:20:39 00:23:45 29° 146° (SE) 00:26:51 437.305
AUBIESAT-1 23 Dec 00:22:50 00:27:08 33° 67° (ENE) 00:31:30 437.475
SPROUT 23 Dec 00:26:04 00:28:29 15° 266° (W) 00:30:56 437.525
SWISSCUBE 23 Dec 00:33:11 00:37:59 88° 257° (WSW) 00:42:48 437.505
ITUPSAT 1 23 Dec 00:34:45 00:39:34 87° 76° (ENE) 00:44:23 437.325
O/OREOS (USA 219) 23 Dec 00:46:45 00:49:44 18° 299° (WNW) 00:52:45 437.305
PHONESAT 2.4 23 Dec 00:47:10 00:50:23 30° 146° (SE) 00:53:35 2401.200-2431.200
M-CUBED/EXP-1 PRIME 23 Dec 00:49:51 00:54:39 72° 71° (ENE) 00:59:34 437.505
BEESAT 23 Dec 00:57:50 01:02:29 51° 260° (W) 01:07:09 436.000
Oscar 19 23 Dec 01:01:11 01:06:18 56° 101° (E) 01:11:22 437.125/150
YUBILEINY 23 Dec 01:04:26 01:10:41 21° 290° (WNW) 01:16:58 435.215
STARS 23 Dec 01:10:09 01:13:41 25° 70° (ENE) 01:17:14 437.465
KKS-1 23 Dec 01:18:49 01:23:04 48° 74° (ENE) 01:27:20 437.445
ITAMSAT 1 23 Dec 01:23:13 01:27:46 31° 98° (E) 01:32:18 435.822/435.867
Gurwin Techsat 1B 23 Dec 01:34:06 01:38:21 24° 96° (E) 01:42:35 435.225
AUBIESAT-1 23 Dec 01:58:12 02:02:01 23° 260° (W) 02:05:54 437.475
VERMONT LUNAR 23 Dec 01:58:29 02:01:56 52° 340° (NNW) 02:05:24 437.305
PHONESAT 2.4 23 Dec 02:25:24 02:28:57 52° 340° (NNW) 02:32:30 2401.200-2431.200
M-CUBED/EXP-1 PRIME 23 Dec 02:29:23 02:30:00 10° 265° (W) 02:30:38 437.505
Oscar 19 23 Dec 02:42:13 02:45:06 15° 295° (WNW) 02:47:59 437.125/150
STARS 23 Dec 02:46:34 02:50:03 23° 264° (W) 02:53:33 437.465
MOZHAYETS 4 23 Dec 02:49:42 02:51:56 14° 66° (ENE) 02:54:10
